Weather History for Greenville, MS

Change the Weather History Date:

Sunday, March 16, 2014

  Actual Average Record
Temperature  
Mean Temperature 53 °F 55 °F  
Max Temperature 68 °F 65 °F 87 °F (1955)
Min Temperature 38 °F 44 °F 27 °F (1926)
Degree Days  
Heating Degree Days 12 11  
Month to date heating degree days 268 201  
Since 1 July heating degree days 2875 2510  
Cooling Degree Days 0 1  
Month to date cooling degree days 0 2  
Year to date cooling degree days 0 7  
Growing Degree Days 4 (Base 50)    
Moisture  
Dew Point 51 °F    
Average Humidity 80    
Maximum Humidity 100    
Minimum Humidity 59    
Precipitation  
Precipitation 0.15 in 0.13 in 3.52 in (1973)
Month to date precipitation 1.44 2.09  
Year to date precipitation 5.74 12.08  
Sea Level Pressure  
Sea Level Pressure 29.71 in    
Wind  
Wind Speed 14 mph (WNW)    
Max Wind Speed 26 mph    
Max Gust Speed 37 mph    
Visibility 8 miles    
Events Rain    
T = Trace of Precipitation, MM = Missing Value Source: NWS Daily Summary

Daily Weather History Graph

Daily Weather History Graph

Search for Another Location

Airport:

Trip Planner

Search our weather history database for the weather conditions in past years. The results will help you decide how hot, cold, wet, or windy it might be!

Date:

Astronomy

Mar. 16, 2014 Rise Set
Actual Time 7:12 AM CDT 7:12 PM CDT
Civil Twilight 6:48 AM CDT 7:37 PM CDT
Nautical Twilight 6:19 AM CDT 8:06 PM CDT
Astronomical Twilight 5:50 AM CDT 8:35 PM CDT
Moon 7:27 PM CDT (3/16) 6:57 AM CDT (3/16)
Length of Visible Light 12h 49m
Length of Day
11h 59m
Full, 100% of the Moon is Illuminated
Mar 16
Full
Mar 16
Full
Mar 23
Last Quarter
Mar 30
New
Apr 7
First Quarter

Hourly Weather History & Observations

Time (CDT) Temp. Windchill Dew Point Humidity Pressure Visibility Wind Dir Wind Speed Gust Speed Precip Events Conditions
12:53 AM 57.9 °F - 57.0 °F 97% 29.79 in 6.0 mi ESE 9.2 mph - 0.04 in Rain Light Rain
1:53 AM 57.9 °F - 55.9 °F 93% 29.74 in 7.0 mi ESE 10.4 mph - 0.00 in Rain Light Rain
2:00 AM 57.2 °F - 57.2 °F 100% 29.72 in 7.0 mi ESE 10.4 mph - 0.00 in Rain Light Rain
2:29 AM 57.2 °F - 57.2 °F 100% 29.70 in 6.0 mi ESE 11.5 mph - 0.01 in Rain Light Rain
2:53 AM 57.9 °F - 57.0 °F 97% 29.70 in 5.0 mi East 5.8 mph - 0.04 in Rain Light Rain
3:46 AM 59.0 °F - 57.2 °F 94% 29.66 in 9.0 mi SE 5.8 mph - 0.02 in   Overcast
3:53 AM 59.0 °F - 57.0 °F 93% 29.69 in 7.0 mi NNW 4.6 mph - 0.03 in Rain Light Rain
4:07 AM 59.0 °F - 57.2 °F 94% 29.66 in 1.8 mi Calm Calm - 0.06 in Rain Heavy Rain
4:14 AM 57.2 °F - 57.2 °F 100% 29.65 in 3.0 mi ESE 3.5 mph - 0.07 in Rain Light Rain
4:53 AM 59.0 °F - 57.0 °F 93% 29.65 in 10.0 mi Calm Calm - 0.08 in   Overcast
5:05 AM 59.0 °F - 57.2 °F 94% 29.63 in 10.0 mi Calm Calm - N/A   Overcast
5:53 AM 57.9 °F - 57.0 °F 97% 29.64 in 9.0 mi SE 8.1 mph - N/A   Overcast
6:13 AM 57.2 °F - 57.2 °F 100% 29.63 in 8.0 mi SSE 4.6 mph - N/A   Overcast
6:53 AM 57.9 °F - 57.0 °F 97% 29.67 in 7.0 mi SSE 5.8 mph - N/A   Overcast
7:20 AM 57.2 °F - 57.2 °F 100% 29.65 in 7.0 mi SSW 5.8 mph - N/A   Overcast
7:53 AM 60.1 °F - 57.9 °F 93% 29.68 in 8.0 mi SW 9.2 mph - N/A   Overcast
8:08 AM 60.8 °F - 57.2 °F 88% 29.66 in 9.0 mi SW 10.4 mph - N/A   Overcast
8:40 AM 60.8 °F - 57.2 °F 88% 29.65 in 10.0 mi WSW 10.4 mph - N/A   Overcast
8:53 AM 60.1 °F - 57.0 °F 90% 29.67 in 10.0 mi WSW 10.4 mph - N/A   Mostly Cloudy
9:14 AM 60.8 °F - 57.2 °F 88% 29.66 in 10.0 mi WSW 9.2 mph - N/A   Scattered Clouds
9:53 AM 61.0 °F - 57.0 °F 87% 29.68 in 10.0 mi WSW 8.1 mph - N/A   Partly Cloudy
10:05 AM 60.8 °F - 57.2 °F 88% 29.66 in 10.0 mi WSW 12.7 mph - N/A   Mostly Cloudy
10:29 AM 60.8 °F - 57.2 °F 88% 29.65 in 10.0 mi West 11.5 mph - N/A   Overcast
10:51 AM 60.8 °F - 55.4 °F 82% 29.65 in 10.0 mi West 11.5 mph - N/A   Overcast
10:53 AM 60.1 °F - 55.9 °F 86% 29.67 in 10.0 mi West 11.5 mph - N/A   Overcast
11:12 AM 60.8 °F - 55.4 °F 82% 29.65 in 10.0 mi WSW 13.8 mph - N/A   Mostly Cloudy
11:53 AM 64.0 °F - 55.9 °F 75% 29.68 in 10.0 mi WSW 10.4 mph - N/A   Mostly Cloudy
12:08 PM 64.4 °F - 55.4 °F 73% 29.66 in 10.0 mi West 16.1 mph - N/A   Scattered Clouds
12:53 PM 64.9 °F - 55.0 °F 70% 29.68 in 10.0 mi West 13.8 mph - N/A   Mostly Cloudy
1:26 PM 64.4 °F - 53.6 °F 68% 29.64 in 10.0 mi West 17.3 mph 21.9 mph N/A   Mostly Cloudy
1:53 PM 66.9 °F - 54.0 °F 63% 29.65 in 10.0 mi West 19.6 mph 24.2 mph N/A   Overcast
2:53 PM 68.0 °F - 54.0 °F 61% 29.62 in 10.0 mi WNW 18.4 mph 24.2 mph N/A   Mostly Cloudy
3:53 PM 61.0 °F - 51.1 °F 70% 29.65 in 10.0 mi WNW 21.9 mph 28.8 mph N/A   Overcast
4:44 PM 55.4 °F - 48.2 °F 77% 29.65 in 10.0 mi NNW 24.2 mph 32.2 mph N/A   Mostly Cloudy
4:53 PM 55.0 °F - 48.9 °F 80% 29.68 in 10.0 mi NW 21.9 mph - N/A   Mostly Cloudy
5:31 PM 50.0 °F - 46.4 °F 87% 29.70 in 7.0 mi North 17.3 mph 26.5 mph N/A   Overcast
5:38 PM 48.2 °F - 46.4 °F 93% 29.71 in 2.5 mi NNW 19.6 mph 28.8 mph 0.00 in Rain Light Rain
5:53 PM 46.0 °F 38.0 °F 44.1 °F 93% 29.75 in 2.5 mi NW 21.9 mph 29.9 mph 0.00 in   Overcast
6:23 PM 44.6 °F 36.1 °F 42.8 °F 93% 29.76 in 3.0 mi NNW 21.9 mph - N/A   Overcast
6:48 PM 42.8 °F 34.0 °F 41.0 °F 93% 29.77 in 5.0 mi NNW 20.7 mph 31.1 mph N/A   Overcast
6:53 PM 43.0 °F 34.5 °F 41.0 °F 93% 29.80 in 5.0 mi NNW 19.6 mph 26.5 mph N/A   Overcast
7:42 PM 42.8 °F 33.3 °F 37.4 °F 81% 29.81 in 10.0 mi North 24.2 mph 33.4 mph N/A   Overcast
7:53 PM 42.1 °F 32.6 °F 37.9 °F 85% 29.84 in 10.0 mi North 23.0 mph 26.5 mph N/A   Overcast
8:28 PM 42.8 °F 35.1 °F 39.2 °F 87% 29.84 in 6.0 mi North 16.1 mph - N/A   Overcast
8:53 PM 41.0 °F 31.1 °F 37.0 °F 86% 29.86 in 10.0 mi North 23.0 mph 29.9 mph N/A   Overcast
9:02 PM 41.0 °F 30.9 °F 37.4 °F 87% 29.83 in 10.0 mi North 24.2 mph 32.2 mph N/A   Overcast
9:35 PM 39.2 °F 29.8 °F 37.4 °F 93% 29.82 in 10.0 mi North 18.4 mph 24.2 mph N/A   Overcast
9:53 PM 39.9 °F 31.1 °F 37.0 °F 89% 29.88 in 10.0 mi North 17.3 mph 26.5 mph N/A   Overcast
10:53 PM 39.9 °F 30.8 °F 35.1 °F 83% 29.90 in 10.0 mi North 18.4 mph 26.5 mph N/A   Overcast
11:53 PM 39.0 °F 29.9 °F 35.1 °F 86% 29.92 in 7.0 mi North 17.3 mph 24.2 mph N/A   Overcast